This is the latest recevied weather packets stored in our database for station/object IZ0VWB-3. If no packets are shown the sender has not sent any weather packets the latest 10 day(s).
| Time | Temp. | Humidity | Pressure | Rain* | Wind** | Luminosity | Snow |
|---|---|---|---|---|---|---|---|
| 1777456088 | 21.67° C | 35% | 1002.9 hPa | 0 mm | - | - | - |
| 1777455487 | 21.67° C | 39% | 1002.8 hPa | 0 mm | - | - | - |
| 1777454888 | 21.67° C | 41% | 1002.9 hPa | 0 mm | - | - | - |
| 1777454288 | 21.11° C | 44% | 1002.9 hPa | 0 mm | - | - | - |
| 1777453685 | 20° C | 46% | 1003 hPa | 0 mm | - | - | - |
| 1777453086 | 20° C | 45% | 1003.1 hPa | 0 mm | - | - | - |
| 1777452485 | 20° C | 47% | 1003.1 hPa | 0 mm | - | - | - |
| 1777451886 | 20° C | 49% | 1003.1 hPa | 0 mm | - | - | - |
| 1777451284 | 19.44° C | 52% | 1003 hPa | 0 mm | - | - | - |
| 1777450686 | 18.33° C | 53% | 1003 hPa | 0 mm | - | - | - |
| 1777450085 | 18.33° C | 53% | 1003 hPa | 0 mm | - | - | - |
| 1777449484 | 18.33° C | 55% | 1003.1 hPa | 0 mm | - | - | - |
| 1777448885 | 18.33° C | 59% | 1003 hPa | 0 mm | - | - | - |
| 1777448285 | 17.78° C | 61% | 1003.1 hPa | 0 mm | - | - | - |
| 1777447684 | 17.22° C | 60% | 1003.1 hPa | 0 mm | - | - | - |
| 1777447084 | 17.22° C | 60% | 1002.9 hPa | 0 mm | - | - | - |
| 1777446485 | 17.22° C | 60% | 1003.1 hPa | 0 mm | - | - | - |
| 1777445884 | 17.22° C | 61% | 1003.1 hPa | 0 mm | - | - | - |
| 1777445283 | 16.67° C | 63% | 1003 hPa | 0 mm | - | - | - |
| 1777444684 | 15.56° C | 65% | 1003.1 hPa | 0 mm | - | - | - |
| 1777444083 | 14.44° C | 64% | 1003 hPa | 0 mm | - | - | - |
| 1777443483 | 14.44° C | 65% | 1003.2 hPa | 0 mm | - | - | - |
| 1777442884 | 13.89° C | 67% | 1003.1 hPa | 0 mm | - | - | - |
| 1777442284 | 13.33° C | 66% | 1003.1 hPa | 0 mm | - | - | - |
| 1777441684 | 13.89° C | 67% | 1003.1 hPa | 0 mm | - | - | - |
* Rain latest hour (hover to see other rain measurements)
** Current wind speed in m/s (hover to see current wind gust speed)